Date String (YYYY-MM-DD hh:mm:ss) UTC,Instrument flags,Ambient pressure (hPa),Sample flow (lpm),Bypass flow (lpm),Sample temperature (°C),Ambient temperature (°C),ASC tube jacket temperature (°C),LED temperature (°C),Box temperature (°C),Sample RH (%),Span deviation,Mass concentration (μg/m³),Mass concentration (μg/m³),Mass concentration (μg/m³)
DateTimeUTC,F1_M11,P_M11,Q1_M11,Q2_M11,T1_M11,T2_M11,T3_M11,T4_M11,T5_M11,U1_M11,ZSPAN_M11,X0_M11,X2_M11,X1_M11
2022-12-11 02:00:00,,0823.4,5.00,0.00,26.5,24.7,00.0,35.5,28.3,07.2,0000.0,0013.66,0005.59,0004.52
2022-12-11 02:01:00,,0823.4,5.00,0.00,26.5,24.7,00.0,35.4,28.2,07.3,0000.0,0013.36,0005.60,0004.51
2022-12-11 02:02:00,,0823.3,5.00,0.00,26.4,24.7,00.0,35.4,28.2,07.3,0000.0,0013.31,0005.53,0004.50
2022-12-11 02:03:00,,0823.3,5.00,0.00,26.4,24.7,00.0,35.4,28.2,07.3,0000.0,0012.98,0005.50,0004.50
2022-12-11 02:04:00,,0823.3,5.00,0.00,26.4,24.7,00.0,35.4,28.2,07.5,0000.0,0013.31,0005.50,0004.54
2022-12-11 02:05:00,,0823.4,5.00,0.00,26.4,24.7,00.0,35.4,28.2,07.5,0000.0,0013.97,0005.60,0004.63
2022-12-11 02:06:00,,0823.4,5.00,0.00,26.4,24.6,00.0,35.4,28.1,07.5,0000.0,0014.21,0005.71,0004.73
2022-12-11 02:07:00,,0823.4,5.01,0.00,26.4,24.6,00.0,35.4,28.1,07.2,0000.0,0014.20,0005.75,0004.77
2022-12-11 02:08:00,,0823.4,5.01,0.00,26.3,24.6,00.0,35.4,28.1,07.2,0000.0,0014.73,0005.82,0004.80
2022-12-11 02:09:00,,0823.4,4.99,0.00,26.3,24.6,00.0,35.3,28.1,07.3,0000.0,0014.19,0005.89,0004.82
2022-12-11 02:10:00,,0823.3,4.99,0.00,26.3,24.6,00.0,35.3,28.0,07.5,0000.0,0013.88,0005.93,0004.86
2022-12-11 02:11:00,,0823.4,5.01,0.00,26.3,24.5,00.0,35.3,28.0,07.7,0000.0,0014.00,0005.96,0004.92
2022-12-11 02:12:00,,0823.3,5.00,0.00,26.2,24.5,00.0,35.3,28.0,07.9,0000.0,0014.32,0006.07,0005.00
2022-12-11 02:13:00,,0823.3,5.00,0.00,26.2,24.5,00.0,35.2,28.0,08.0,0000.0,0015.04,0006.18,0005.10
2022-12-11 02:14:00,,0823.2,5.00,0.00,26.2,24.5,00.0,35.2,28.0,07.9,0000.0,0015.61,0006.32,0005.18
2022-12-11 02:15:00,,0823.3,4.99,0.00,26.2,24.4,00.0,35.2,27.9,08.0,0000.0,0016.25,0006.50,0005.27
2022-12-11 02:16:00,,0823.4,4.99,0.00,26.1,24.2,00.0,35.2,27.9,08.1,0000.0,0016.30,0006.59,0005.33
2022-12-11 02:17:00,,0823.4,5.00,0.00,26.1,24.0,00.0,35.2,27.8,08.3,0000.0,0016.72,0006.67,0005.42
2022-12-11 02:18:00,,0823.4,5.01,0.00,26.1,23.9,00.0,35.1,27.8,08.3,0000.0,0017.93,0006.84,0005.55
2022-12-11 02:19:00,,0823.3,5.00,0.00,26.0,24.0,00.0,35.1,27.8,08.2,0000.0,0018.82,0006.98,0005.69
2022-12-11 02:20:00,,0823.3,4.99,0.00,26.0,24.1,00.0,35.1,27.8,08.2,0000.0,0019.66,0007.04,0005.79
2022-12-11 02:21:00,,0823.4,4.99,0.00,26.0,24.1,00.0,35.1,27.7,08.3,0000.0,0019.59,0007.12,0005.88
2022-12-11 02:22:00,,0823.4,5.00,0.00,26.0,24.2,00.0,35.0,27.7,08.4,0000.0,0019.80,0007.22,0005.95
2022-12-11 02:23:00,,0823.4,5.00,0.00,26.0,24.2,00.0,35.0,27.7,08.3,0000.0,0020.51,0007.23,0005.98
2022-12-11 02:24:00,,0823.4,5.00,0.00,25.9,24.2,00.0,35.0,27.7,08.3,0000.0,0021.44,0007.29,0006.00
2022-12-11 02:25:00,,0823.3,5.01,0.00,25.9,24.2,00.0,35.0,27.7,08.4,0000.0,0021.62,0007.34,0006.05
2022-12-11 02:26:00,,0823.3,5.00,0.00,25.9,24.2,00.0,35.0,27.7,08.5,0000.0,0022.00,0007.33,0006.09
2022-12-11 02:27:00,,0823.4,5.00,0.00,25.9,24.2,00.0,34.9,27.7,08.6,0000.0,0022.04,0007.36,0006.14
2022-12-11 02:28:00,,0823.3,5.00,0.00,25.9,24.0,00.0,34.9,27.7,08.7,0000.0,0023.29,0007.39,0006.18
2022-12-11 02:29:00,,0823.2,4.99,0.00,25.9,23.9,00.0,34.9,27.6,08.8,0000.0,0024.54,0007.40,0006.20
2022-12-11 02:30:00,,0823.2,4.99,0.00,25.8,24.0,00.0,34.9,27.7,08.9,0000.0,0023.72,0007.41,0006.24
2022-12-11 02:31:00,,0823.2,5.00,0.00,25.8,24.0,00.0,34.9,27.7,08.8,0000.0,0024.23,0007.52,0006.30
2022-12-11 02:32:00,,0823.3,5.02,0.00,25.8,24.0,00.0,34.8,27.7,08.7,0000.0,0026.84,0007.60,0006.36
2022-12-11 02:33:00,,0823.2,4.99,0.00,25.8,24.0,00.0,34.8,27.6,08.6,0000.0,0028.12,0007.63,0006.38
2022-12-11 02:34:00,,0823.3,4.99,0.00,25.8,24.0,00.0,34.8,27.6,08.5,0000.0,0028.13,0007.70,0006.40
2022-12-11 02:35:00,,0823.3,4.99,0.00,25.8,24.0,00.0,34.8,27.6,08.5,0000.0,0026.84,0007.70,0006.44
2022-12-11 02:36:00,,0823.4,5.00,0.00,25.8,24.0,00.0,34.8,27.6,08.6,0000.0,0026.78,0007.72,0006.48
2022-12-11 02:37:00,,0823.4,5.01,0.00,25.8,24.0,00.0,34.8,27.6,08.6,0000.0,0026.90,0007.79,0006.52
2022-12-11 02:38:00,,0823.4,4.99,0.00,25.8,24.0,00.0,34.7,27.6,08.6,0000.0,0026.98,0007.86,0006.55
2022-12-11 02:39:00,,0823.3,4.99,0.00,25.8,24.1,00.0,34.7,27.6,08.6,0000.0,0026.45,0007.88,0006.56
2022-12-11 02:40:00,,0823.4,5.02,0.00,25.8,24.2,00.0,34.7,27.6,08.6,0000.0,0024.77,0007.96,0006.59
2022-12-11 02:41:00,,0823.4,5.00,0.00,25.8,24.2,00.0,34.7,27.6,08.5,0000.0,0025.25,0007.99,0006.57
2022-12-11 02:42:00,,0823.4,4.98,0.00,25.8,24.2,00.0,34.7,27.6,08.5,0000.0,0024.57,0007.97,0006.55
2022-12-11 02:43:00,,0823.4,5.01,0.00,25.8,24.2,00.0,34.7,27.6,08.5,0000.0,0022.49,0007.98,0006.55
2022-12-11 02:44:00,,0823.3,5.02,0.00,25.8,24.2,00.0,34.7,27.6,08.6,0000.0,0021.49,0008.06,0006.59
2022-12-11 02:45:00,,0823.4,5.00,0.00,25.8,24.2,00.0,34.7,27.6,08.7,0000.0,0020.95,0008.14,0006.65
2022-12-11 02:46:00,,0823.4,4.99,0.00,25.8,24.2,00.0,34.7,27.6,08.7,0000.0,0021.91,0008.20,0006.68
2022-12-11 02:47:00,,0823.4,5.00,0.00,25.7,24.2,00.0,34.7,27.6,08.8,0000.0,0021.34,0008.26,0006.71
2022-12-11 02:48:00,,0823.3,5.00,0.00,25.8,24.2,00.0,34.7,27.6,08.9,0000.0,0020.71,0008.29,0006.74
2022-12-11 02:49:00,,0823.4,5.00,0.00,25.7,24.2,00.0,34.7,27.5,08.9,0000.0,0020.23,0008.32,0006.77
2022-12-11 02:50:00,,0823.4,5.00,0.00,25.7,24.2,00.0,34.7,27.6,08.9,0000.0,0019.70,0008.37,0006.81
2022-12-11 02:51:00,,0823.3,5.00,0.00,25.7,24.2,00.0,34.7,27.6,08.9,0000.0,0019.17,0008.35,0006.84
2022-12-11 02:52:00,,0823.3,5.00,0.00,25.7,24.2,00.0,34.7,27.6,08.7,0000.0,0019.41,0008.41,0006.89
2022-12-11 02:53:00,,0823.4,5.00,0.00,25.7,24.1,00.0,34.6,27.4,08.5,0000.0,0020.60,0008.42,0006.89
2022-12-11 02:54:00,,0823.3,5.00,0.00,25.7,24.1,00.0,34.6,27.4,08.5,0000.0,0020.96,0008.39,0006.88
2022-12-11 02:55:00,,0823.3,5.01,0.00,25.7,24.1,00.0,34.6,27.5,08.6,0000.0,0021.05,0008.33,0006.87
2022-12-11 02:56:00,,0823.2,5.01,0.00,25.7,24.1,00.0,34.6,27.5,08.8,0000.0,0021.38,0008.32,0006.87
2022-12-11 02:57:00,,0823.2,5.00,0.00,25.7,24.1,00.0,34.6,27.5,08.9,0000.0,0020.94,0008.36,0006.90
2022-12-11 02:58:00,,0823.2,4.99,0.00,25.7,24.1,00.0,34.6,27.5,08.9,0000.0,0022.39,0008.37,0006.90
2022-12-11 02:59:00,,0823.3,5.00,0.00,25.7,24.1,00.0,34.6,27.4,08.9,0000.0,0023.02,0008.32,0006.90
